Regional Weather Roundup
Issued by NWS Wakefield, VA

Home | Current Version | Previous Version | Graphics & Text | Print | Product List | Glossary On
Versions: 1 2 3 4 5 6 7 8 9 10 11 12 13 14 15 16 17 18 19 20 21 22 23 24 25 26 27 28
000
ASUS41 KAKQ 182010
RWRAKQ

REGIONAL WEATHER ROUNDUP
NATIONAL WEATHER SERVICE WAKEFIELD VA
400 PM EDT FRI APR 18 2014

Note: "fair" indicates few or no clouds below 12,000 feet with no
significant weather and/or obstructions to visibility. * = Denotes
station may not report precipitation (e.g., rain,snow,etc.),
thunder or fog.

VAZ042-051-052>054-056-182100-
NORTHERN VIRGINIA

CITY           SKY/WX    TMP DP  RH WIND       PRES   REMARKS
WASH NATIONAL  CLOUDY    55  33  43 CALM      30.38F
DULLES         PTSUNNY   55  33  43 VRB3      30.35F
FORT BELVOIR   CLOUDY    54  32  42 VRB3      30.37F
QUANTICO       PTSUNNY   52  34  50 SW5       30.38F
FREDERICKSBRG* PTSUNNY   55  36  47 E6        30.35F
STAFFORD*      PTSUNNY   56  37  49 CALM      30.40F
WARRENTON      PTSUNNY   58  44  59 N6        30.34F
CULPEPER*      MOSUNNY   57  34  41 CALM      30.35F
MANASSAS*      PTSUNNY   55  36  47 CALM      30.36S
LEESBURG*      MOSUNNY   55  36  47 S6        30.35F
WINCHESTER     SUNNY     55  36  47 CALM      30.32F
$$

VAZ048-049-060>072-079>083-182100-
CENTRAL AND SOUTH CENTRAL VIRGINIA...AND NORTH CENTRAL NORTH CAROLINA

CITY           SKY/WX    TMP DP  RH WIND       PRES   REMARKS
RICHMOND       CLOUDY    54  33  45 CALM      30.35F
CHESTERFIELD*  NOT AVBL
HANOVER        CLOUDY    53  34  48 CALM      30.36F
TAPPAHANNOCK*  CLOUDY    52  32  46 CALM      30.37F
CHARLOTTSVILLE CLOUDY    57  36  45 CALM      30.32F
ORANGE*        PTSUNNY   55  36  47 CALM      30.35F
LOUISA*        PTSUNNY   57  36  44 CALM      30.32F
FARMVILLE*     CLOUDY    57  36  44 CALM      30.31F
SOUTH HILL*    CLOUDY    57  37  47 N5        30.37F
ROANOKE RAPIDS CLOUDY    61  41  48 N7        30.31F
RALEIGH        PTSUNNY   63  40  42 NE10      30.30F
$$

VAZ088>098-182100-
SOUTHEAST VIRGINIA

CITY           SKY/WX    TMP DP  RH WIND       PRES   REMARKS
NORFOLK        CLOUDY    49  40  71 NE12      30.36F
VIRGINIA BEACH CLOUDY    49  40  71 NE12      30.36F
NORFOLK NAVAL  CLOUDY    50  39  66 E8        30.38F
WEST POINT*    CLOUDY    55  36  49 E5        30.38F
NEWPORT NEWS   CLOUDY    52  40  63 E8        30.36F
LANGLEY AFB    CLOUDY    49  41  73 E10       30.37F
FORT EUSTIS    CLOUDY    52  41  67 E5        30.34F
WILLIAMSBURG*    N/A     55  43  62 E3        30.36F
FRANKLIN*      CLOUDY    57  41  54 E9        30.34F
WAKEFIELD      CLOUDY    56  38  50 VRB3      30.34F
$$

VAZ020-022-025-037-045-182100-
WESTERN AND SOUTHWEST VIRGINIA

CITY           SKY/WX    TMP DP  RH WIND       PRES   REMARKS
STAUNTON*      CLOUDY    58  35  42 S5        30.30F
HOT SPRINGS VA CLOUDY    52  36  54 S6        30.33F
LYNCHBURG      CLOUDY    58  37  45 CALM      30.33F
DANVILLE       CLOUDY    59  38  45 VRB5      30.31F
MARTINSVILLE   CLOUDY    55  39  54 E3        30.33F
ROANOKE        CLOUDY    52  38  58 CALM      30.33F
BLACKSBURG     CLOUDY    55  43  62 CALM      30.31F
DUBLIN*        CLOUDY    54  36  52 CALM      30.29F
MARION*        CLOUDY    55  36  49 SE5       30.30F
HILLSVILLE*    CLOUDY    52  36  54 CALM      30.31F
RICHLANDS*     CLOUDY    63  33  32 CALM      30.26F
WISE*          CLOUDY    61  34  36 N7        30.27F
ABINGDON*      CLOUDY    61  33  34 E5        30.25F
$$

MDZ021>025-VAZ099-100-182100-
SOUTHERN MARYLAND AND THE DELMARVA PENINSULA

CITY           SKY/WX    TMP DP  RH WIND       PRES   REMARKS
PATUXENT RIVER CLOUDY    50  37  61 E3        30.37F
BAY BRIDGE APT PTSUNNY   46  36  66 NW5       30.38F
LEONARDTOWN    CLOUDY    52  34  50 SE5       30.38F
DOVER          MOSUNNY   50  37  62 VRB6      30.34F
GEORGETOWN     PTSUNNY   52  35  52 E6        30.38F
EASTON         PTSUNNY   55  39  54 E7        30.40F
CAMBRIDGE      PTSUNNY   55  37  50 NW3       30.35F
SALISBURY      PTSUNNY   54  37  52 E5        30.37F
OCEAN CITY     CLOUDY    47  38  71 NE10      30.39F
WALLOPS ISLAND CLOUDY    48  41  76 E10       30.39F
ACCOMACK*      CLOUDY    46  37  71 E7        30.38S
$$

NCZ012>017-030>032-182100-
EASTERN NORTH CAROLINA

CITY           SKY/WX    TMP DP  RH WIND       PRES   REMARKS
ELIZABETH CITY PTSUNNY   53  42  66 NE13      30.35F
AHOSKIE*       CLOUDY    59  42  53 N8        30.32F
EDENTON*       PTSUNNY   60  46  59 E9        30.32F
CURRITUCK*     CLOUDY    50  40  69 NE13      30.36F
KILL DEVIL HLS CLOUDY    49  43  80 N12G18    30.33F
MANTEO         CLOUDY    51  44  76 NE15      30.34F
CAPE HATTERAS  CLOUDY    52  47  83 NE14G25   30.31F
GOLDSBORO      CLOUDY    63  46  54 NE9       30.26F
WASHINGTON     MOSUNNY   65  46  49 NE8       30.30F
GREENVILLE     PTSUNNY   64  45  48 NE9       30.29F
NEW BERN       CLOUDY    64  48  56 NE13      30.29F
WILMINGTON     CLOUDY    63  51  65 NE13      30.23F
$$

VAZ048-182100-
ELSEWHERE

CITY           SKY/WX    TMP DP  RH WIND       PRES   REMARKS
HARRISBURG PA  CLOUDY    54  35  48 SE9       30.33F
BALTIMORE      CLOUDY    50  32  50 NE5       30.37F
ANNAPOLIS      PTSUNNY   48  35  60 SE3       30.38F
ANDREWS AFB    CLOUDY    51  34  52 NE5       30.36F
WILMINGTON DE  PTSUNNY   51  33  50 VRB6      30.37F
PHILADELPHIA   CLOUDY    53  30  41 CALM      30.37F
WILDWOOD NJ*   PTSUNNY   46  36  66 E12       30.40F
ATLANTIC CITY  CLOUDY    48  36  63 E12       30.38F
HENDERSON NC   PTSUNNY   58  36  44 E9        30.30F
GREENSBORO     CLOUDY    57  38  48 NE9       30.28F
ROCKY MOUNT    PTSUNNY   63  41  44 N9        30.29F
FAYETTEVILLE   CLOUDY    65  42  43 N12       30.25F
CHARLOTTE      CLOUDY    56  41  57 N8        30.27F
$$

VAZ100-182100-
MARINE

STATION/POSITION TIME  TEMP    WIND        PRES    WAVE   SWELL
                       AIR SEA DIR/SP/G            HT/PER HT/PER
                 (UTC) (F)     (DEG/KT/KT) (MB)    (FT/S) (FT/S)
44066 TX TWR #4  2000   41 45   20/ 14/ 16 1028.3F   8/11   7/11
CAPE MAY NJ      2000   45 52  110/  8/ 14 1028.6F
LEWES DE         2000   44 48   90/  7/ 11 1028.2F
15NM E FENWICK I 2000   43 45              1028.8F   6/ 9
OCEAN-CITY-INLET 2000   44 47   60/  7/ 10 1028.7F
WACHAPREAGUE VA  2000   45 52   70/ 12/ 14 1028.3F
THOMAS POINT MD  2000   46 53  330/  3/  4 1029.1F
GOOSES REEF MD   2000   45     320/  4/  6 1030.4F
COVE POINT MD    2000   45     360/  6/  8 1028.5F
SOLOMONS ISLAND  2000      52                N/A
BISHOPS HEAD MD  2000   47 56  290/ 11/ 12 1028.2F
PINEY POINT MD   2000          210/  5/  6   N/A
POTOMAC MD       2000   47     220/  2/  4 1028.0F
CAMBRIDGE MD     2000   51 55  340/  5/  5 1027.6F
LEWISETTA VA     2000   47 53  100/  3/  3 1028.3F
RAPPAHANNOCK LGT 2000          330/  7/  8 1029.0F
STINGRAY PT      2000   47      40/  2/  4 1028.6F
YORK RVR RNG VA  2000   48      90/  5/  5 1027.8F
YORKTOWN VA      2000   48 54  100/  8/  9 1028.2F
JAMESTOWN VA     2000   52     130/  6/  8   N/A
DOMINION TERM VA 2000   47      80/  8/ 11 1028.5F
KIPTOPEKE VA     2000      52   70/  6/ 10   N/A
CHES BAY BRIDGE  2000   45 52   60/ 11/ 12 1028.3F
CAPE HENRY VA    2000   44      40/ 11/ 12   N/A
CHESAPEAKE LGHT  1900   44      30/ 15/ 16 1029.6F
WILLOUBY STN VA  2000   46      80/  6/ 10 1027.6F
S CRANEY ISL VA  2000           40/  7/ 10 1028.3F
CAPE HENRY BUOY  2000      47                N/A     6/11   2/11
1ST LANDING BUOY 2000      45                N/A     6/11   5/11
64NM E OF VA BCH 2000   47 49  360/ 16/ 19 1027.1F   8/10   7/10
DUCK PIER NC     2000   46 52   20/ 17/ 19 1026.6F
44100 DUCK FRF   2000      48                N/A     8/11   3/11
44056 DUCK FRF   2000      49                N/A     7/10   3/12
OREGON INLET NC  2000   49 51  360/ 14/ 21 1027.2F
HATTERAS NC      2000   51 55   10/ 20/ 25 1026.4F
CAPE LOOKOUT NC  1900   56      40/ 21/ 24 1025.7F
FRYING PAN SHLS  2000   61 64   60/ 23/ 29 1022.0F   8/ 6   3/10
$$



USA.gov is the U.S. government's official web portal to all federal, state and local government web resources and services.